Weather History for Branson, MO

Change the Weather History Date:

Wednesday, January 11, 2012

  Actual Average (KHRO) Record (KHRO)
Temperature  
Mean Temperature 42 °F 36 °F  
Max Temperature 53 °F 46 °F 75 °F (1960)
Min Temperature 32 °F 26 °F -8 °F (1962)
Degree Days  
Heating Degree Days 22 29  
Month to date heating degree days 319  
Since 1 July heating degree days 1918  
Cooling Degree Days 0 0  
Month to date cooling degree days 0  
Year to date cooling degree days 0  
Moisture  
Dew Point 36 °F    
Average Humidity 84    
Maximum Humidity 100    
Minimum Humidity 44    
Precipitation  
Precipitation 0.06 in 0.08 in 2.15 in (1908)
Month to date precipitation 0.92  
Year to date precipitation 0.92  
Snow  
Snow 0.00 in 0.10 in 7.00 in (1908)
Month to date snowfall 1.1  
Since 1 July snowfall 2.9  
Snow Depth -    
Sea Level Pressure  
Sea Level Pressure 29.69 in    
Wind  
Wind Speed 4 mph (WNW)    
Max Wind Speed 20 mph    
Max Gust Speed 32 mph    
Visibility 7 miles    
Events Rain , Snow    
T = Trace of Precipitation, MM = Missing Value Source: NWS Daily Summary

Daily Weather History Graph

Daily Weather History Graph

Search for Another Location

Airport:

Trip Planner

Search our weather history database for the weather conditions in past years. The results will help you decide how hot, cold, wet, or windy it might be!

Date:

Astronomy

Jan. 11, 2012 Rise Set
Actual Time 7:24 AM CST 5:16 PM CST
Civil Twilight 6:56 AM CST 5:44 PM CST
Nautical Twilight 6:24 AM CST 6:16 PM CST
Astronomical Twilight 5:53 AM CST 6:47 PM CST
Moon 8:09 PM CST (1/11) 8:42 AM CST (1/11)
Length of Visible Light 10h 48m
Length of Day
9h 51m
Waning Gibbous, 93% of the Moon is Illuminated
Jan 11
Waning Gibbous
Jan 16
Last Quarter
Jan 23
New
Jan 30
First Quarter
Feb 7
Full

Hourly Weather History & Observations

Time (CST) Temp. Windchill Dew Point Humidity Pressure Visibility Wind Dir Wind Speed Gust Speed Precip Events Conditions
12:15 AM 39.2 °F - 39.2 °F 100% 29.71 in 5.0 mi Calm Calm - N/A   Overcast
12:35 AM 39.2 °F - 39.2 °F 100% 29.71 in 5.0 mi Calm Calm - N/A   Overcast
12:55 AM 39.2 °F - 39.2 °F 100% 29.71 in 6.0 mi Calm Calm - N/A   Overcast
1:15 AM 39.2 °F - 39.2 °F 100% 29.71 in 5.0 mi Calm Calm - N/A   Overcast
1:35 AM 39.2 °F - 39.2 °F 100% 29.70 in 5.0 mi Calm Calm - N/A Rain Light Rain
1:55 AM 39.2 °F 37.0 °F 39.2 °F 100% 29.69 in 5.0 mi SW 3.5 mph - N/A   Overcast
2:15 AM 39.2 °F - 39.2 °F 100% 29.70 in 5.0 mi Calm Calm - N/A   Overcast
2:35 AM 39.2 °F 35.9 °F 39.2 °F 100% 29.69 in 4.0 mi WNW 4.6 mph - N/A Rain Light Rain
2:55 AM 39.2 °F 37.0 °F 39.2 °F 100% 29.68 in 2.5 mi West 3.5 mph - N/A Rain Light Rain
3:15 AM 39.2 °F 35.9 °F 39.2 °F 100% 29.68 in 1.8 mi NW 4.6 mph - N/A Rain Light Rain
3:35 AM 39.2 °F 35.9 °F 39.2 °F 100% 29.67 in 3.0 mi WNW 4.6 mph - 0.03 in Rain Light Rain
3:55 AM 39.2 °F - 39.2 °F 100% 29.66 in 3.0 mi Calm Calm - 0.05 in Rain Light Rain
4:15 AM 39.2 °F - 39.2 °F 100% 29.65 in 3.0 mi Calm Calm - N/A Rain Light Rain
4:35 AM 39.2 °F 37.0 °F 39.2 °F 100% 29.66 in 2.0 mi West 3.5 mph - N/A Rain Light Rain
4:55 AM 39.2 °F 35.9 °F 39.2 °F 100% 29.66 in 3.0 mi WNW 4.6 mph - N/A   Overcast
5:15 AM 39.2 °F 37.0 °F 39.2 °F 100% 29.65 in 1.8 mi West 3.5 mph - N/A   Overcast
5:35 AM 39.2 °F 35.0 °F 39.2 °F 100% 29.65 in 3.0 mi West 5.8 mph - N/A   Overcast
6:15 AM 39.2 °F - 39.2 °F 100% 29.66 in 7.0 mi Calm Calm - N/A   Overcast
6:35 AM 39.2 °F - 39.2 °F 100% 29.66 in 7.0 mi Calm Calm - N/A   Scattered Clouds
6:50 AM 39.2 °F 34.2 °F 39.2 °F 100% 29.66 in 7.0 mi West 6.9 mph - N/A   Scattered Clouds
7:50 AM 37.4 °F 32.1 °F 37.4 °F 100% 29.67 in 7.0 mi West 6.9 mph - N/A   Scattered Clouds
8:45 AM 39.2 °F 35.0 °F 35.6 °F 87% 29.68 in 10.0 mi WNW 5.8 mph - N/A   Partly Cloudy
9:45 AM 41.0 °F 38.0 °F 35.6 °F 81% 29.69 in 10.0 mi WNW 4.6 mph - N/A   Partly Cloudy
10:50 AM 44.6 °F 40.7 °F 35.6 °F 71% 29.69 in 10.0 mi NW 6.9 mph - N/A   Partly Cloudy
11:45 AM 48.2 °F - 33.8 °F 58% 29.67 in 10.0 mi WNW 6.9 mph - N/A   Partly Cloudy
12:45 PM 50.0 °F - 33.8 °F 54% 29.63 in 10.0 mi WNW 6.9 mph - N/A   Partly Cloudy
1:47 PM 50.0 °F - 32.0 °F 50% 29.62 in 10.0 mi WNW 13.8 mph - N/A   Partly Cloudy
2:55 PM 53.6 °F - 33.8 °F 47% 29.62 in 10.0 mi NW 8.1 mph - N/A   Partly Cloudy
3:47 PM 53.6 °F - 32.0 °F 44% 29.63 in 10.0 mi WNW 6.9 mph - N/A   Scattered Clouds
4:50 PM 51.8 °F - 32.0 °F 47% 29.64 in 10.0 mi WNW 10.4 mph - N/A   Scattered Clouds
5:50 PM 50.0 °F - 32.0 °F 50% 29.65 in 10.0 mi West 4.6 mph - N/A   Partly Cloudy
6:53 PM 46.4 °F 41.1 °F 33.8 °F 62% 29.67 in 10.0 mi WNW 11.5 mph 17.3 mph N/A   Overcast
8:45 PM 39.2 °F 31.2 °F 32.0 °F 75% 29.73 in 10.0 mi NNW 13.8 mph 24.2 mph N/A   Partly Cloudy
9:15 PM 39.2 °F 31.6 °F 32.0 °F 75% 29.74 in 10.0 mi NW 12.7 mph 20.7 mph N/A   Overcast
9:35 PM 39.2 °F 31.6 °F 32.0 °F 75% 29.75 in 10.0 mi WNW 12.7 mph - N/A   Overcast
9:55 PM 39.2 °F 30.8 °F 32.0 °F 75% 29.76 in 10.0 mi NW 15.0 mph 23.0 mph N/A   Overcast
10:15 PM 37.4 °F 28.2 °F 32.0 °F 81% 29.77 in 9.0 mi NW 16.1 mph 29.9 mph N/A   Mostly Cloudy
10:35 PM 37.4 °F 28.2 °F 32.0 °F 81% 29.78 in 7.0 mi WNW 16.1 mph 26.5 mph N/A Rain Light Rain
10:55 PM 35.6 °F 25.9 °F 32.0 °F 87% 29.79 in 9.0 mi WNW 16.1 mph 27.6 mph N/A   Overcast
11:15 PM 33.8 °F 22.8 °F 28.4 °F 81% 29.79 in 10.0 mi NW 18.4 mph 32.2 mph N/A Rain Light Rain
11:35 PM 32.0 °F 21.6 °F 28.4 °F 87% 29.80 in 8.0 mi NW 15.0 mph 23.0 mph N/A Rain Light Rain
11:55 PM 32.0 °F 20.1 °F 26.6 °F 80% 29.81 in 5.0 mi NW 19.6 mph 27.6 mph 0.01 in Snow Light Snow